Home   Weather   Resolute Bay   Past weeks

Flag for Canada Past Weather in Resolute Bay, Nunavut, Canada — Yesterday and Last 2 Weeks

Now
-15 °F

Snow flurries. Passing clouds.


Feels Like: -42 °F
Forecast: -27 / -22 °F
Wind: 22 mph from Northeast

Location: Resolute

Current Time: Jan 24, 2017 at 7:38:24 pm

Latest Report: Jan 24, 2017 at 7:00 pm


Visibility: 14 mi

Pressure: 29.92 "Hg

Humidity: 69%

Dew Point: -22 °F

Location of Resolute BayLocation

Past Weather in Resolute Bay — Graph

°F

Resolute Bay Temperature Yesterday

Maximum temperature yesterday: -13 °F (at 7:00 pm)
Minimum temperature yesterday: -35 °F (at 3:00 am)
Average temperature yesterday: -24 °F

High & Low Weather Summary for the Past Weeks

 TemperatureHumidityPressure
High0 °F (Jan 21, 10:00 am)84% (Jan 21, 12:00 pm)30.26 "Hg (Jan 21, 12:00 pm)
Low-40 °F (Jan 14, 1:00 pm)58% (Jan 14, 3:00 am)29.40 "Hg (Jan 17, 1:00 am)
Average-22 °F69%29.86 "Hg
* Reported Jan 9 6:00 pm — Jan 24 6:00 pm, Resolute Bay, Weather by CustomWeather, © 2017

Note: Actual official high and low records may vary slightly from our data, if they occured in-between our weather recording intervals... More about our weather records

Advertising

Resolute Bay Weather History for the Previous 24 Hours

Scroll right to see more
 ConditionsComfort  
Time TempWeatherWind HumidityBarometerVisibility
6:00 pm
Tue, Jan 24
-20 °FSnow flurries. Low level haze.25 mph68%29.93 "Hg12 mi
5:32 pm-18 °FSnow flurries. Passing clouds.24 mph75%29.94 "Hg15 mi
5:00 pm-15 °FPassing clouds.24 mph69%29.93 "Hg15 mi
4:00 pm-18 °FPassing clouds.18 mph75%29.93 "Hg15 mi
3:00 pm-18 °FScattered clouds.3 mph69%29.93 "Hg15 mi
2:00 pm-18 °FBroken clouds.3 mph69%29.94 "Hg15 mi
1:00 pm-17 °FScattered clouds.2 mph69%29.95 "Hg15 mi
12:00 pm-18 °FPartly sunny.3 mph69%29.96 "Hg15 mi
11:00 am-17 °FScattered clouds.3 mph69%29.96 "Hg15 mi
10:00 am-17 °FSnow flurries. Scattered clouds.No wind69%29.96 "Hg15 mi
9:00 am-17 °FSnow flurries. Passing clouds.No wind69%29.97 "Hg15 mi
8:00 am-18 °FSnow flurries. Passing clouds.3 mph75%29.97 "Hg15 mi
7:00 am-18 °FSnow flurries. Passing clouds.6 mph75%29.98 "Hg15 mi
6:00 am-17 °FSnow flurries. Scattered clouds.3 mph69%29.99 "Hg15 mi
5:00 am-17 °FSnow flurries. Passing clouds.6 mph69%29.99 "Hg15 mi
4:00 am-17 °FSnow flurries. Passing clouds.No wind76%30.00 "Hg15 mi
3:00 am-15 °FSnow flurries. Passing clouds.3 mph76%30.00 "Hg15 mi
2:00 am-17 °FSnow flurries. Passing clouds.7 mph76%30.00 "Hg15 mi
1:00 am-15 °FSnow flurries. Passing clouds.7 mph69%30.01 "Hg15 mi
12:00 am-18 °FSnow flurries. Passing clouds.10 mph75%30.01 "Hg15 mi
11:00 pm
Mon, Jan 23
-17 °FSnow flurries. Passing clouds.10 mph76%30.02 "Hg15 mi
10:00 pm-17 °FSnow flurries. Passing clouds.10 mph69%30.03 "Hg15 mi
9:00 pm-15 °FSnow flurries. Passing clouds.9 mph69%30.03 "Hg15 mi
8:00 pm-13 °FSnow flurries. Passing clouds.14 mph69%30.04 "Hg15 mi
7:00 pm-13 °FSnow flurries. Passing clouds.14 mph76%30.06 "Hg15 mi
Weather by CustomWeather, © 2017

See weather overviewHow to use our weather pages